Regional Weather Roundup
Issued by NWS Midland/Odessa, TX

Home | Current Version | Previous Version | Text Only | Print | Product List | Glossary On
Versions: 1 2 3 4 5 6 7 8 9 10 11 12 13 14 15 16 17 18 19 20 21 22 23 24 25 26 27 28 29 30 31 32 33 34 35 36 37 38 39 40 41 42 43 44 45 46 47 48 49 50
000
ASUS44 KMAF 301310
RWRMAF
MIDLAND AREA WEATHER ROUNDUP
NATIONAL WEATHER SERVICE MIDLAND TX
800 AM CDT TUE JUN 30 2015

...IN SOUTHWEST TEXAS AND SOUTHEAST NEW MEXICO...

CITY           SKY/WX    TMP DP  RH WIND       PRES   REMARKS
ALPINE         CLOUDY    67  62  85 NE23G30   30.25R
ANDREWS        FAIR      64  63  97 SE7       30.15R
ARTESIA        SUNNY     68  64  88 S7        30.19S
BIG SPRING     CLOUDY    82  76  83 S9        30.09F
CARLSBAD       SUNNY     69  63  81 S5        30.16R
DRYDEN           N/A     72  69  90 NW8       30.08R
FORT STOCKTON  LGT RAIN  63  61  93 E16G28    30.16F
GUAD PASS      SUNNY     63  58  83 NE40      30.23S
HOBBS          SUNNY     63  63 100 CALM      30.18S
MARFA          CLOUDY   N/A N/A N/A CALM      30.19F
MIDLAND AIRPK  LGT RAIN  66  66 100 SW7       30.12S
MIDLAND INTL   LGT RAIN  66  62  87 S10       30.12F
ODESSA         LGT RAIN  65  61  87 SE8       30.14S
PECOS          CLOUDY    67  61  81 E14       30.15R
PRESIDIO       FAIR      77  63  60 N8        30.06R
SEMINOLE         N/A     64  60  88 S3        30.17S
SNYDER         CLOUDY    66  62  88 S6        30.09R
WINK           CLOUDY    67  61  81 SE12      30.11F
$$
...OTHER STATIONS IN TEXAS...

CITY           SKY/WX    TMP DP  RH WIND       PRES   REMARKS
ABILENE        CLOUDY    71  65  81 E7        30.08R
AMARILLO       SUNNY     65  57  75 SW13      30.16F
AUSTIN         PTSUNNY   74  74 100 S5        30.05R FOG
BROWNSVILLE    MOSUNNY   78  73  84 CALM      29.99R
CORPUS CHRISTI MOSUNNY   80  78  94 SE6       30.00S
DALLAS FTW     PTSUNNY   77  67  71 S10       30.01S
DEL RIO        CLOUDY    76  73  91 E6        30.02R
EL PASO        MOSUNNY   71  55  56 N8        30.13R
HOUSTON INT    PTSUNNY   81  77  88 CALM      30.03S
LUBBOCK        PTSUNNY   65  62  90 SW8       30.15F
SAN ANGELO     CLOUDY    69  65  86 W7        30.09S
SAN ANTONIO    CLOUDY    80  74  81 S7        30.05S
WACO           CLOUDY    74  68  81 E9        30.07R
WICHITA FALLS  NOT AVBL
$$
...OTHER LOCATIONS IN NEW MEXICO...

CITY           SKY/WX    TMP DP  RH WIND       PRES   REMARKS
ALAMAGORDO     MOSUNNY   72  54  53 N5        30.16S
ALBUQUERQUE    PTSUNNY   71  49  45 NW5       30.26R
CANNON AFB     SUNNY     64  59  86 S5        30.22R
CLOVIS         SUNNY     63  57  82 SW5       30.22S
HOLLOMAN AFB   MOSUNNY   72  53  50 S8        30.14R
ROSWELL        SUNNY     68  60  75 CALM      30.18R
RUIDOSO        MOSUNNY   63  54  72 CALM      30.38R
SANTA FE       MOSUNNY   60  49  66 NE3       30.34R
TRUTH OR CONSE CLOUDY    71  57  61 CALM      30.18S
TUCUMCARI      SUNNY     65  54  67 SE5       30.20R
$$


USA.gov is the U.S. government's official web portal to all federal, state and local government web resources and services.